Simultaneous Nadir Overpasses (SNOs) Predictions

Prediction of SNOs between GOES-17 and TERRA Satellite Orbit:

Table of predicted SNOs for the next 14.0 days since TLE Epoch: 10/31/2020
Index Date Time (GOES-17) GOES-17 Lat,Lon TERRA Lat,Lon Distance(km) Time Diff (sec)
1 11/01/2020 19:39:48 -0.05,-137.21 -0.05,-137.07 16.05 80
2 11/03/2020 19:27:37 -0.04,-137.20 -0.70,-134.11 350.50 80
3 11/04/2020 07:49:01 0.04,-137.19 -0.42,-139.30 240.63 80
4 11/06/2020 07:34:10 0.03,-137.17 0.23,-136.35 93.13 80
5 11/06/2020 19:55:25 -0.03,-137.16 0.89,-141.50 493.77 80
6 11/08/2020 07:21:58 0.03,-137.14 0.83,-133.39 426.11 80
7 11/08/2020 19:43:13 -0.03,-137.13 0.30,-138.54 160.92 80
8 11/10/2020 19:33:42 -0.02,-137.10 -0.36,-135.59 171.46 80
9 11/11/2020 07:55:06 0.02,-137.09 -0.75,-140.78 420.11 80
10 11/13/2020 07:42:54 0.02,-137.04 -0.14,-137.82 88.47 80
